Flag for Canada

Past Weather in Kuujjuaq, Quebec, Canada — Yesterday and Last 2 Weeks

Now
45 °F

Mostly cloudy.


Feels Like: 41 °F
Forecast: 58 / 46 °F
Wind: 7 mph from Southwest

Location: Kuujjuaq
Current Time: Sep 21, 2020 at 12:23:12 am
Latest Report: Sep 21, 2020 at 12:00 am
Visibility: 15 mi
Pressure29.95 "Hg
Humidity: 81%
Dew Point: 39 °F
Location of KuujjuaqLocation

Past Weather in Kuujjuaq — Graph

°F

Kuujjuaq Temperature Yesterday

Maximum temperature yesterday: 46 °F (at 11:00 pm)
Minimum temperature yesterday: 36 °F (at 6:00 am)
Average temperature yesterday: 40 °F

High & Low Weather Summary for the Past Weeks

 TemperatureHumidityPressure
High59 °F (Sep 7, 1:00 pm)100% (Sep 7, 4:00 am)30.29 "Hg (Sep 7, 4:00 am)
Low34 °F (Sep 15, 10:00 pm)46% (Sep 15, 4:00 pm)29.12 "Hg (Sep 8, 5:00 am)
Average43 °F85%29.74 "Hg
* Reported Sep 5 11:00 pm — Sep 20 11:00 pm, Kuujjuaq. Weather by CustomWeather, © 2020

Note: Actual official high and low records may vary slightly from our data, if they occured in-between our weather recording intervals... More about our weather records

Kuujjuaq Weather History for the Previous 24 Hours

Scroll right to see more
 ConditionsComfort  
Time TempWeatherWind HumidityBarometerVisibility
11:00 pm
Sun, Sep 20
46 °FMostly cloudy.7 mph76%29.97 "Hg15 mi
9:00 pm45 °FOvercast.9 mph81%29.99 "Hg15 mi
8:00 pm45 °FMostly cloudy.5 mph81%30.00 "Hg15 mi
7:00 pm45 °FMostly cloudy.7 mph81%30.01 "Hg15 mi
6:00 pm45 °FMostly cloudy.8 mph81%30.00 "Hg15 mi
5:00 pm45 °FLight rain. Overcast.6 mph87%30.00 "Hg15 mi
4:00 pm45 °FLight rain. Overcast.6 mph87%30.01 "Hg15 mi
3:00 pm43 °FOvercast.7 mph87%30.00 "Hg15 mi
2:20 pm43 °FOvercast.9 mph87%30.00 "Hg15 mi
2:00 pm43 °FOvercast.13 mph87%30.00 "Hg15 mi
1:00 pm41 °FLight rain. Overcast.13 mph87%30.01 "Hg15 mi
12:00 pm39 °FLight rain. More clouds than sun.13 mph93%30.02 "Hg12 mi
11:00 am39 °FMostly cloudy.15 mph87%30.03 "Hg15 mi
10:00 am37 °FLight rain. Overcast.10 mph93%30.04 "Hg12 mi
9:00 am37 °FLight rain. More clouds than sun.13 mph93%30.04 "Hg12 mi
8:00 am36 °FLight rain. More clouds than sun.13 mph93%30.05 "Hg12 mi
7:00 am36 °FLight rain. More clouds than sun.12 mph93%30.05 "Hg12 mi
6:00 am36 °FLight rain. Mostly cloudy.17 mph93%30.05 "Hg12 mi
5:00 am37 °FLight rain. Overcast.14 mph87%30.06 "Hg12 mi
4:12 am37 °FLight rain. Mostly cloudy.13 mph81%30.07 "Hg15 mi
3:00 am39 °FPartly cloudy.17 mph75%30.08 "Hg15 mi
2:00 am37 °FPartly cloudy.12 mph81%30.09 "Hg15 mi
1:00 am37 °FPassing clouds.9 mph81%30.10 "Hg15 mi
12:00 am37 °FPassing clouds.10 mph81%30.11 "Hg15 mi
Weather by CustomWeather, © 2020

See weather overview